LNK146 EGCC-EGLL

Flight info

Callsign LNK146
Flight time N/A
Altitude 19000
Route LISTO L612 HON
Aircraft A35K/H-SDE2E3GHIJ3J4J5LM1ORWXY/LB1D1

Departure

Time 2026-05-04 04:57
Airport Manchester Airport (EGCC)

Arrival

Time N/A
Airport London Heathrow Airport (EGLL)
Time Latitude Longitude Altitude Speed Heading
2026-05-04 04:43 53.36401 -2.27674 261 ft 0 kts 45°
2026-05-04 04:50 53.36400 -2.27677 262 ft 2 kts 45°
2026-05-04 04:50 53.36381 -2.27708 263 ft 4 kts 45°
2026-05-04 04:50 53.36365 -2.27734 265 ft 4 kts 32°
2026-05-04 04:50 53.36346 -2.27742 267 ft 4 kts 319°
2026-05-04 04:51 53.36336 -2.27716 267 ft 4 kts 284°
2026-05-04 04:51 53.36336 -2.27719 267 ft 9 kts 284°
2026-05-04 04:53 53.36337 -2.27721 268 ft 2 kts 285°
2026-05-04 04:53 53.36347 -2.27778 264 ft 15 kts 288°
2026-05-04 04:53 53.36332 -2.28016 261 ft 20 kts 218°
2026-05-04 04:54 53.36201 -2.28031 261 ft 21 kts 147°
2026-05-04 04:54 53.36079 -2.27871 261 ft 24 kts 141°
2026-05-04 04:54 53.35932 -2.27732 261 ft 26 kts 173°
2026-05-04 04:54 53.35739 -2.27743 253 ft 31 kts 184°
2026-05-04 04:55 53.35514 -2.27846 244 ft 36 kts 215°
2026-05-04 04:55 53.35326 -2.28136 241 ft 38 kts 223°
2026-05-04 04:55 53.35139 -2.28475 237 ft 42 kts 232°
2026-05-04 04:55 53.34951 -2.28851 236 ft 43 kts 228°
2026-05-04 04:56 53.34743 -2.29241 226 ft 47 kts 227°
2026-05-04 04:56 53.34550 -2.29240 226 ft 0 kts 98°
2026-05-04 04:56 53.34556 -2.29222 226 ft 6 kts 63°
2026-05-04 04:56 53.34592 -2.29137 228 ft 15 kts 53°
2026-05-04 04:57 53.34826 -2.28621 240 ft 108 kts 49°
2026-05-04 04:57 53.35502 -2.27231 419 ft 187 kts 51°
2026-05-04 04:57 53.36370 -2.25369 1485 ft 217 kts 57°
2026-05-04 04:57 53.36862 -2.22812 1952 ft 250 kts 90°
2026-05-04 04:58 53.36299 -2.19971 2667 ft 269 kts 126°
2026-05-04 04:58 53.34890 -2.17956 3854 ft 266 kts 150°
2026-05-04 04:58 53.33142 -2.16928 4910 ft 270 kts 172°
2026-05-04 04:58 53.31276 -2.17000 5923 ft 271 kts 188°
2026-05-04 04:59 53.29404 -2.17398 7000 ft 272 kts 188°
2026-05-04 04:59 53.27512 -2.17760 8118 ft 273 kts 187°
2026-05-04 04:59 53.25609 -2.18099 9214 ft 277 kts 187°
2026-05-04 04:59 53.23674 -2.18421 10268 ft 281 kts 187°
2026-05-04 05:00 53.21715 -2.18737 11243 ft 285 kts 187°
2026-05-04 05:00 53.19721 -2.19056 11994 ft 301 kts 187°
2026-05-04 05:00 53.15233 -2.19680 12953 ft 345 kts 181°
2026-05-04 05:01 53.12809 -2.19008 13672 ft 359 kts 164°
2026-05-04 05:01 53.10423 -2.17629 14450 ft 366 kts 159°
2026-05-04 05:01 53.08052 -2.15925 15250 ft 373 kts 156°
2026-05-04 05:01 53.05694 -2.14141 16064 ft 378 kts 156°
2026-05-04 05:02 53.03274 -2.12375 16900 ft 383 kts 157°
2026-05-04 05:02 53.00804 -2.10620 17750 ft 388 kts 157°
2026-05-04 05:02 52.98316 -2.08876 18496 ft 395 kts 157°
2026-05-04 05:02 52.95768 -2.07107 18894 ft 397 kts 157°
2026-05-04 05:03 52.93214 -2.05343 19000 ft 398 kts 157°
2026-05-04 05:03 52.90652 -2.03579 19007 ft 399 kts 158°
2026-05-04 05:04 52.82974 -1.98313 19007 ft 398 kts 159°
2026-05-04 05:04 52.80410 -1.96565 19006 ft 398 kts 158°
2026-05-04 05:04 52.77845 -1.94816 19004 ft 398 kts 159°
2026-05-04 05:06 52.60008 -1.82718 18994 ft 396 kts 159°
2026-05-04 05:06 52.57463 -1.81000 18994 ft 397 kts 159°
2026-05-04 05:06 52.55796 -1.79877 18992 ft 397 kts 159°